Terug naar catalogus

THORAD DELTA 1 DEB

ActiefSSO
NORAD 8165·DEBRIS·🇺🇸 United States

Gelanceerd Nov 15, 1974 vanaf Vandenberg Space Force Base

Loading…

Volgende Passages (komende 24 uur)

TLE

VersSource: Space-Track

Epoch: Sep 14, 2026, 07:38 UTC

1 08165U 74089AF  26257.31866802 -.00000024  00000-0  13301-3 0  9992
2 08165 101.7165 199.6680 0018152  69.4695  85.2086 12.50214944363900

Volg THORAD DELTA 1 DEB in realtime met AllMySat

Download on the App Store